Regional Weather Roundup
Issued by NWS

Home | Current Version | Previous Version | Text Only | Print | Product List | Glossary Off
Versions: 1 2 3 4 5 6 7 8 9 10 11 12 13 14 15 16 17 18 19 20 21 22 23 24 25 26 27

000
ASUS45 KCYS 290310
RWRWY

WYOMING REGIONAL WEATHER ROUNDUP
NATIONAL WEATHER SERVICE CHEYENNE WY
900 PM MDT THU JUL 28 2016

NOTE:  "FAIR" INDICATES FEW OR NO CLOUDS BELOW 12,000 FEET
WITH NO SIGNIFICANT WEATHER AND/OR OBSTRUCTIONS TO VISIBILITY.

WYZ001-290400-
YELLOWSTONE NATIONAL PARK

CITY           SKY/WX    TMP DP  RH WIND       PRES   REMARKS
LK YELLOWSTONE   N/A     61  38  42 VRB3      30.36R
W YELLOWSTONE  NOT AVBL

$$
WYZ002>013-054>058-071-098>099-290400-
NORTHERN WYOMING

CITY           SKY/WX    TMP DP  RH WIND       PRES   REMARKS
JACKSON        NOT AVBL
CODY           FAIR      70  48  46 N6        30.21S
GREYBULL       FAIR      79  45  29 NW14      30.10R
WORLAND        FAIR      74  49  41 N8        30.11R
SHERIDAN       FAIR      71  53  52 CALM      30.16R
BUFFALO        FAIR      68  51  54 NE8       30.23R
GILLETTE       FAIR      63  55  75 CALM      30.18S
HULETT         FAIR      63  57  82 SE6       30.19S
NEWCASTLE      FAIR      68  50  52 NE5       30.17R

$$
WYZ014>020-022>026-101>103-290400-
CENTRAL WYOMING

CITY           SKY/WX    TMP DP  RH WIND       PRES   REMARKS
BIG PINEY      FAIR      68  25  19 N10       30.26R
PINEDALE       FAIR      68  32  26 NW8       30.27R
DUBOIS         FAIR      66  43  42 SE18G26   30.29R
LANDER         FAIR      72  43  35 W5        30.20R
RIVERTON       FAIR      75  41  29 NE10      30.20R
CASPER         FAIR      72  48  42 NE13      30.20R
DOUGLAS          N/A    N/A N/A N/A MISG      30.21R

$$
WYZ021-027>030-104>119-290400-
SOUTHERN WYOMING

CITY           SKY/WX    TMP DP  RH WIND       PRES   REMARKS
EVANSTON       FAIR      75  31  19 W8        30.28R
KEMMERER         N/A    N/A N/A N/A NW8       30.30R
FORT BRIDGER   FAIR      76  23  13 NW9       30.30R
ROCK SPRINGS   FAIR      76  37  24 NE13      30.22R
DIXON          FAIR      72  24  16 NW7       30.18S
RAWLINS        FAIR      71  47  42 E18       30.25R
SARATOGA       FAIR      70  45  40 N7        30.23S
LARAMIE        FAIR      61  54  77 SE13      30.31R
CHEYENNE       FAIR      63  55  75 S6        30.27R
TORRINGTON     FAIR      70  57  63 E6        30.15S
PINE BLUFFS    FAIR      64  54  68 E6        30.21S

$$




USA.gov is the U.S. government's official web portal to all federal, state and local government web resources and services.